Location: Newark
(45.0500°N, 41.9667°E)
Time: 20:59:25
(UTC+00:00)

Starlink (trailer) - Pass Details

Date: 29 July 2019
Orbit: 549 x 550 km, 53.0° (Epoch: 19 August)

Event Time Altitude Azimuth Distance (km) Brightness Sun altitude
Rises 22:16:20 0° 291° (WNW) 2,720 7.2 -25.0°
Reaches altitude 10° 22:18:51 10° 304° (WNW) 1,826 6.5 -24.8°
Maximum altitude 22:22:24 27° 2° (N) 1,087 5.8 -24.7°
Drops below altitude 10° 22:25:57 10° 61° (ENE) 1,827 6.8 -24.5°
Sets 22:28:28 0° 74° (ENE) 2,720 7.6 -24.4°
